Regional Weather Roundup
Issued by NWS

Home | Current Version | Previous Version | Text Only | Print | Product List | Glossary Off
Versions: 1 2 3 4 5 6 7 8 9 10 11 12 13 14 15 16 17 18 19 20 21 22 23 24 25 26 27 28 29 30 31 32 33 34 35 36 37 38 39 40 41 42 43 44 45 46 47 48 49 50

000
ASUS43 KBIS 300702
RWRND

NORTH DAKOTA REGIONAL WEATHER ROUNDUP
NATIONAL WEATHER SERVICE BISMARCK ND
200 AM CDT TUE AUG 30 2016

NOTE: "FAIR" INDICATES FEW OR NO CLOUDS BELOW 12,000 FEET WITH NO
SIGNIFICANT WEATHER AND/OR OBSTRUCTIONS TO VISIBILITY.


NDZ001>003-009>011-017-300800-
NORTHWEST NORTH DAKOTA

CITY           SKY/WX    TMP DP  RH WIND       PRES   REMARKS
WILLISTON      CLEAR     57  42  57 N3        30.22S
MINOT          CLEAR     53  46  77 CALM      30.23F
MINOT AFB      CLEAR     52  45  77 S2        30.22F
$$

NDZ018>021-031>035-040>046-300800-
SOUTHWEST NORTH DAKOTA

CITY           SKY/WX    TMP DP  RH WIND       PRES   REMARKS
BISMARCK       CLEAR     55  49  80 NE9       30.25S
DICKINSON      CLEAR     54  45  71 SE10      30.24F
GARRISON         N/A     51  46  83 N3        30.24F
HETTINGER ARPT CLEAR     60  49  66 E8        30.27S
$$

NDZ004>008-012>016-024-026-027-054-300800-
NORTHEAST NORTH DAKOTA

CITY           SKY/WX    TMP DP  RH WIND       PRES   REMARKS
GRAND FORKS    CLEAR     53  49  86 W5        30.21S
GRND FRKS AFB  CLEAR     53  49  88 W3        30.22R
DEVILS LAKE    CLEAR     54  50  86 CALM      30.24S
$$

NDZ022-023-025-028>030-036>039-047>053-300800-
SOUTHEAST NORTH DAKOTA

CITY           SKY/WX    TMP DP  RH WIND       PRES   REMARKS
FARGO          CLEAR     56  51  84 N7        30.21R
JAMESTOWN      CLEAR     53  51  93 N5        30.24S
$$





USA.gov is the U.S. government's official web portal to all federal, state and local government web resources and services.